www.pogodaiklimat.ru

Погода и климат >> Архив погоды >> Россия >> Приморский край >> Свиягино


АРХИВ ПОГОДЫ в Свиягино

Время (UTC), дата Ветер
(напр.,м/с)
 
Видим.   Явления Облачность Т
(С)
Тd
(С)
f
(%)
Тe
(С)
Тes
(С)
Комфортность P
(гПа)
Po
(гПа)
Тmin
(С)
Tmax
(С)
R
(мм)
R24
(мм)
S
(см)
15 16.09 штиль 0 20 км 1 балл +5.2 +4.0 92 +4 +4 1019.0 1006.7
18 16.09 Ю 1 20 км 2 балла +3.8 +3.4 97 +2 +2 1019.0 1006.7
21 16.09 Ю 1 20 км ясно +2.1 +1.7 97 0 0 1018.6 1006.1 +2.1
00 17.09 ЮЗ 1 50 км ясно +13.2 +7.9 70 +13 +20 1018.4 1006.3
03 17.09 ЮЗ 1 50 км 1 балл +17.6 +2.3 36 +19 +31 опасность
простуды
1018.4 1006.7
06 17.09 З 1 50 км ясно +18.9 +3.9 37 +20 +28 1015.6 1004.0
09 17.09 СВ 1 20 км ясно +15.1 +7.1 59 +16 +16 1012.9 1001.1 +18.9
15 17.09 Ю 1 20 км ясно +6.1 +4.7 91 +5 +5 1010.8 998.7
18 17.09 Ю 3 20 км 6 баллов +10.2 +5.8 74 +8 +8 1007.9 996.0
21 17.09 З 4-10
{12}
20 км в посл. час ливневой дождь {гроза} 10/6 600 м
[Cb cap Ac und]
+10.3 +7.1 81 +8 +8 1009.8 997.8 +5.7 2
00 18.09 З 4
{12}
20 км {гроза, ливн. осадки} 10/4 600 м
[Cb cap Ac und]
+11.1 +4.9 66 +9 +10 1012.2 1000.2
03 18.09 СЗ 5
{14}
20 км {ливн. осадки} 9/3 600 м
[Cb cap Ac As]
+11.3 +1.3 50 +9 +11 1014.0 1001.9
06 18.09 СЗ 6-12
{14}
20 км в посл. час ливневой дождь 10/8 600 м
[Cb cap Ac und]
+11.4 -1.4 41 +9 +9 1014.6 1002.7
09 18.09 З 3
{13}
20 км в посл. час ливневой дождь 8/4 600 м
[Cb cap Ac trans]
+9.0 +2.8 65 +7 +7 1014.7 1002.7 +12.7 1
12 18.09 ЮЗ 3
{12}
20 км 10/3 600 м
[Cb cap Ac und]
+8.4 +2.4 66 +6 +6 1015.0 1002.8
15 18.09 З 3 20 км 10 баллов +9.0 +0.4 55 +7 +7 1014.7 1002.7
18 18.09 ЮЗ 5 20 км 7 баллов +6.1 +0.6 68 +2 +2 1013.5 1001.3
21 18.09 ЮЗ 4 20 км 3/0
[Ac trans]
+5.9 +0.9 70 +2 +2 1012.3 1000.0 +5.7
00 19.09 З 4-10
{11}
50 км 1/1 600 м
[Cu med, cong]
+12.1 -1.5 39 +11 +14 1012.4 1000.3
03 19.09 З 6-12
{14}
50 км 1/0
[Ac trans]
+13.8 -1.4 35 +12 +16 1012.6 1000.7
06 19.09 З 5 50 км ясно +15.6 -1.5 31 +15 +18 1013.1 1001.3
09 19.09 СЗ 3
{11}
50 км ясно +12.5 +2.1 49 +11 +11 1014.6 1002.7 +15.6
12 19.09 СЗ 2 20 км ясно +10.1 +1.7 56 +9 +9 1017.3 1005.3
15 19.09 СЗ 1 20 км ясно +7.6 +2.9 72 +7 +7 1017.4 1005.3
18 19.09 Ю 2 20 км ясно +3.8 +2.8 93 +1 +1 1019.0 1006.7
21 19.09 Ю 1 50 км ясно +4.1 +1.3 82 +3 +3 1019.0 1006.5 +3.5
00 20.09 З 2 50 км ясно +12.2 +5.2 62 +11 +16 1020.2 1008.1
03 20.09 СЗ 2 50 км 2 балла +16.0 +3.4 43 +16 +25 1021.1 1009.3
06 20.09 СЗ 2 20 км ясно +17.2 +2.4 37 +18 +23 1019.8 1008.0
09 20.09 СВ 1 20 км ясно +13.7 +3.5 50 +14 +14 1019.9 1008.0 +17.6
12 20.09 ЮВ 2 20 км 4/0
[Ac trans Ci sp]
+6.8 +4.7 86 +5 +5 1019.9 1007.6
15 20.09 Ю 2 20 км 6 баллов +6.4 +4.4 87 +4 +4 1020.2 1008.0
18 20.09 Ю 2 20 км 6 баллов +7.9 +5.9 87 +6 +6 1020.1 1008.0
21 20.09 Ю 1 20 км {ливн. осадки} 8/3 600 м
[Cb cap Ci sp]
+9.3 +8.4 94 +9 +9 1018.3 1006.1 +4.9 2
00 21.09 З 2 20 км {ливн. осадки} 9/3 600 м
[Cb cap Ac cuf Ci sp]
+13.8 +11.8 88 +13 +15 1019.2 1007.2
03 21.09 СЗ 3 50 км 7 баллов +16.4 +10.5 68 +16 +19 1021.1 1009.3
06 21.09 СЗ 4 50 км 4 балла +17.2 +7.3 52 +17 +19 1021.1 1009.3
09 21.09 С 1 20 км 3/0
[Ac trans]
+14.2 +7.7 65 +15 +15 1022.6 1010.7 +17.8
12 21.09 Ю 2 20 км 3/0
[Ac trans]
+7.8 +7.1 95 +6 +6 1023.9 1011.6
15 21.09 Ю 1 20 км ясно +5.6 +5.2 97 +4 +4 1025.6 1013.3
18 21.09 Ю 1 20 км ясно +3.5 +3.2 98 +2 +2 1025.7 1013.3
21 21.09 штиль 0 20 км ясно +2.7 +2.4 98 +1 +1 1025.7 1013.1 +2.5
00 22.09 З 1 20 км ясно +12.9 +9.9 82 +13 +19 1026.1 1013.9 +2.2
03 22.09 З 2 20 км 4 балла +16.6 +7.5 55 +17 +23 1026.6 1014.7
06 22.09 СЗ 2 20 км 4 балла +17.0 +5.3 46 +17 +21 1025.1 1013.3
09 22.09 С 1 20 км 8/0
[Ac trans]
+13.3 +6.4 63 +14 +14 1024.0 1012.0 +17.2
12 22.09 Ю 1 20 км 10/0
[Ac und]
+7.8 +6.8 93 +7 +7 1023.0 1010.7
15 22.09 Ю 1 20 км 4 балла +7.3 +6.6 95 +6 +6 1021.5 1009.3
18 22.09 штиль 0 20 км 4 балла +4.6 +4.2 97 +3 +3 1020.3 1008.0
21 22.09 штиль 0 20 км 6/0
[Ac trans]
+2.3 +2.0 98 +1 +1 1018.9 1006.3 +2.3
00 23.09 штиль 0 20 км 8/0
[Ac As]
+10.9 +8.0 82 +10 +13 1017.1 1005.0 +2.2
03 23.09 С 3 50 км 2 балла +16.2 +7.7 57 +16 +23 1015.7 1004.0
06 23.09 С 2 50 км ясно +19.0 +5.8 42 +20 +25 1012.9 1001.3
09 23.09 штиль 0 20 км ясно +15.7 +10.2 70 +16 +16 1013.0 1001.3 +19.2

 

Местоположение метеостанции Свиягино (Приморский край, Россия): широта 44.80 долгота 133.00 высота над уровнем моря 99 м.

В архиве по умолчанию представлена погода в Свиягино за последнюю неделю. Архивные данные за месяц целиком и за предыдущие месяцы, начиная с января 2011 года, Вы можете получить, выбрав интересующий диапазон дат из раскрывающегося списка и нажав кнопку "Ввод!".


*Определитесь, кто Вы:
робот инопланетянин человек

Внимание! Время в таблицах - всемирное. Для получения местного времени необходимо прибавить поправку, которая равна 10 ч.

Смотрите также архив погоды в соседних городах и на ближайших метеорологических станциях:

Погода в Спасск-Дальнем (Приморский край, Россия) (25 км)
Погода в Кировском (Приморский край, Россия) (52 км)
Погода в Лесозаводске (Приморский край, Россия) (78 км)
Погода в Астраханке (Приморский край, Россия) (79 км)
Погода в Хороле (Приморский край, Россия) (89 км)
Погода в Турьем Роге (Приморский край, Россия) (92 км)
Погода в Анучино (Приморский край, Россия) (92 км)
Погода в Чугуевке (Приморский край, Россия) (96 км)
Погода в Хулине (Хэйлунцзян, Китай) (108 км)
Погода в Малиново (Приморский край, Россия) (117 км)

Пояснения к столбцам:

Ветер - указаны скорость ветра в м/с - средняя за 10 мин, порывы в срок и между сроками (в фигурных скобках) и направление, откуда дует ветер: С - северный, СВ - северо-восточный, В - восточный, ЮВ - юго-восточный, Ю - южный, ЮЗ - юго-западный, З - западный, СЗ - северо-западный.
Видимость - горизонтальная дальность видимости в метрах или километрах. При видимости от 1 до 10 км при отсутствии осадков обычно наблюдается дымка, при ухудшении видимости до 1 км и менее - туман. В сухую погоду видимость может ухудшаться дымом, пылью или мглою.
Явления - указаны атмосферные явления, наблюдавшиеся в срок или в последний час перед сроком; фигурными скобками обозначены явления, наблюдавшиеся между сроками (за 1-3 часа до срока); квадратными скобками обозначены град или гололедные отложения с указанием их диаметра в мм.
Облачность - указаны через наклонную черту общая и нижняя облачность в баллах и высота нижней границы облаков в метрах; квадратными скобками обозначены формы облаков: Ci - перистые, Cs - перисто-слоистые, Cc - перисто-кучевые, Ac - высококучевые, As - высокослоистые, Sc - слоисто-кучевые, Ns - слоисто-дождевые, Cu - кучевые, Cb - кучево-дождевые. Подробнее классификацию облаков см. в Атласе облаков (PDF).
T - Температура воздуха - температура, измеренная на высоте 2 м над землей.
Td - Температура точки росы - температура, при понижении до которой содержащийся в воздухе водяной пар достигнет насыщения.
f - Относительная влажность воздуха - влажноcть воздуха, измеренная на высоте 2 м над землей.
Te - Эффективная температура - температура, которую ощущает одетый по сезону человек в тени. Характеристика душности погоды. При расчете учитывается влияние влажности воздуха и скорости ветра на теплоощущения человека.
Tes - Эффективная температура на солнце - температура, которую ощущает человек, с поправкой на солнечный нагрев. Характеристика знойности погоды. Зависит от высоты солнца над горизонтом, облачности и скорости ветра. Ночью, в пасмурную погоду, а также при ветре 12 м/с и более поправка равна нулю.
P - Атмосферное давление - приведенное к уровню моря атмосферное давление.
Po - Атмосферное давление - измеренное на уровне метеостанции атмосферное давление.
Tmin - Минимальная температура - минимум температуры воздуха на высоте 2 м над землей.
Tmax - Максимальная температура - максимум температуры воздуха на высоте 2 м над землей.
R - Количество осадков - Количество выпавших осадков за период времени, мм. При наведении курсора мыши на число - период времени, за который выпало указанное количество осадков.
R24 - Количество осадков - Количество выпавших осадков за 24 часа, мм.
S - Снежный покров - Высота снежного покрова, см. При наведении курсора мыши на число - состояние снежного покрова и степень покрытия местности в баллах.